GW1795 Weather Reports


Display with metric or nautical units.
time (UTC)temp
F
wind
direction
speed
MPH
gust
MPH
rain 1hr
in
rain 24hr
in
rain mn
in
humidity
%
barometer
mb
20260510220131 62 45 2.0 5.0 0.00 0.00 0.00 41 1015.1
20260510215628 62 117 0.0 4.0 0.00 0.00 0.00 42 1014.7
20260510215127 62 87 2.0 5.0 0.00 0.00 0.00 42 1015.1
20260510214624 62 98 1.0 3.0 0.00 0.00 0.00 41 1014.7
20260510214120 64 126 2.0 9.0 0.00 0.00 0.00 38 1014.5
20260510213617 65 72 2.0 6.0 0.00 0.00 0.00 40 1014.5
20260510213114 65 14 3.0 7.0 0.00 0.00 0.00 40 1014.3
20260510212610 66 3 1.0 6.0 0.00 0.00 0.00 38 1014.2
20260510212108 66 237 1.0 4.0 0.00 0.00 0.00 40 1014.2
20260510211604 66 111 2.0 5.0 0.00 0.00 0.00 37 1014.1
20260510211104 66 62 3.0 5.0 0.00 0.00 0.00 38 1013.9
20260510210601 67 41 2.0 8.0 0.00 0.00 0.00 35 1014.0
20260510210056 66 98 4.0 5.0 0.00 0.00 0.00 35 1014.1
20260510205555 65 47 3.0 6.0 0.00 0.00 0.00 37 1014.2
20260510205051 65 191 1.0 6.0 0.00 0.00 0.00 36 1014.2
20260510204548 65 247 2.0 8.0 0.00 0.00 0.00 37 1014.0
20260510204044 66 49 2.0 5.0 0.00 0.00 0.00 37 1014.1
20260510203541 65 116 2.0 6.0 0.00 0.00 0.00 39 1014.3
20260510203038 64 103 5.0 6.0 0.00 0.00 0.00 38 1014.2
20260510202537 65 3 1.0 4.0 0.00 0.00 0.00 37 1014.2
20260510202034 65 279 6.0 6.0 0.00 0.00 0.00 38 1014.1
20260510201531 65 206 1.0 5.0 0.00 0.00 0.00 38 1014.2
20260510201028 65 69 5.0 10.0 0.00 0.00 0.00 37 1014.4
20260510200523 64 66 3.0 5.0 0.00 0.00 0.00 38 1014.2
20260510200021 64 121 5.0 6.0 0.00 0.00 0.00 44 1014.3
20260510195519 63 329 2.0 5.0 0.00 0.00 0.00 39 1014.5
20260510195014 64 65 0.0 3.0 0.00 0.00 0.00 41 1014.4
20260510194510 63 164 1.0 4.0 0.00 0.00 0.00 41 1014.4
20260510194006 64 315 4.0 6.0 0.00 0.00 0.00 38 1014.4
20260510193507 64 340 5.0 7.0 0.00 0.00 0.00 38 1014.4
20260510193002 64 330 1.0 6.0 0.00 0.00 0.00 39 1014.4
20260510192457 65 247 4.0 6.0 0.00 0.00 0.00 38 1014.4
20260510191954 65 317 4.0 8.0 0.00 0.00 0.00 37 1014.6
20260510191449 65 315 0.0 5.0 0.00 0.00 0.00 40 1014.5
20260510190947 65 60 4.0 5.0 0.00 0.00 0.00 41 1014.4
20260510190444 64 154 2.0 5.0 0.00 0.00 0.00 44 1014.4
20260510185941 64 60 5.0 7.0 0.00 0.00 0.00 39 1014.3
20260510185438 64 64 3.0 7.0 0.00 0.00 0.00 39 1014.2
20260510184936 64 324 6.0 9.0 0.00 0.00 0.00 38 1014.2
20260510184433 63 51 4.0 10.0 0.00 0.00 0.00 40 1014.4
20260510183932 64 17 3.0 8.0 0.00 0.00 0.00 41 1014.4
20260510183429 64 73 2.0 6.0 0.00 0.00 0.00 43 1014.2
20260510182924 64 287 3.0 6.0 0.00 0.00 0.00 38 1014.3
20260510182421 64 170 1.0 7.0 0.00 0.00 0.00 43 1014.1
20260510181916 63 66 1.0 6.0 0.00 0.00 0.00 42 1014.4
20260510181414 63 5 3.0 10.0 0.00 0.00 0.00 38 1014.3
20260510180910 64 340 6.0 15.0 0.00 0.00 0.00 38 1014.1
20260510180407 64 74 2.0 6.0 0.00 0.00 0.00 43 1014.4
20260510175904 63 86 4.0 9.0 0.00 0.00 0.00 46 1014.0
20260510175400 63 258 3.0 6.0 0.00 0.00 0.00 43 1014.2
20260510174856 64 113 5.0 10.0 0.00 0.00 0.00 40 1014.1
20260510174354 63 32 2.0 7.0 0.00 0.00 0.00 43 1013.9
20260510173850 63 47 1.0 12.0 0.00 0.00 0.00 42 1013.7
20260510173346 64 77 4.0 8.0 0.00 0.00 0.00 47 1013.5
20260510172842 64 358 2.0 6.0 0.00 0.00 0.00 41 1013.9
20260510172338 63 149 3.0 5.0 0.00 0.00 0.00 43 1013.8
20260510171835 63 80 4.0 5.0 0.00 0.00 0.00 45 1013.8
20260510171332 63 40 3.0 11.0 0.00 0.00 0.00 43 1013.8
20260510170829 64 355 3.0 6.0 0.00 0.00 0.00 44 1013.6
20260510170325 63 330 5.0 11.0 0.00 0.00 0.00 41 1013.8
20260510165820 62 116 3.0 4.0 0.00 0.00 0.00 42 1013.8
20260510165317 63 356 3.0 7.0 0.00 0.00 0.00 41 1014.1
20260510164815 63 17 2.0 5.0 0.00 0.00 0.00 45 1014.1
20260510164312 63 62 3.0 6.0 0.00 0.00 0.00 45 1014.1
20260510163812 63 50 5.0 5.0 0.00 0.00 0.00 43 1013.9
20260510163308 63 61 3.0 7.0 0.00 0.00 0.00 43 1014.0
20260510162808 63 85 6.0 6.0 0.00 0.00 0.00 44 1014.0
20260510162306 62 308 2.0 5.0 0.00 0.00 0.00 43 1014.1
20260510161800 63 44 4.0 6.0 0.00 0.00 0.00 43 1014.1
20260510161257 62 155 3.0 3.0 0.00 0.00 0.00 46 1014.0
20260510160754 62 80 2.0 7.0 0.00 0.00 0.00 45 1014.0
20260510160250 62 165 2.0 6.0 0.00 0.00 0.00 57 1013.9
20260510155745 61 4 0.0 9.0 0.00 0.00 0.00 48 1013.9
20260510155242 62 212 2.0 5.0 0.00 0.00 0.00 47 1013.8
20260510154737 62 36 5.0 8.0 0.00 0.00 0.00 47 1013.5
20260510154234 61 120 6.0 6.0 0.00 0.00 0.00 50 1013.7
20260510153729 62 62 4.0 8.0 0.00 0.00 0.00 46 1013.8
20260510153225 62 95 4.0 7.0 0.00 0.00 0.00 46 1013.5
20260510152722 62 74 5.0 8.0 0.00 0.00 0.00 51 1013.5
20260510152217 62 69 2.0 2.0 0.00 0.00 0.00 51 1013.4
20260510151715 61 83 5.0 6.0 0.00 0.00 0.00 53 1013.4
20260510151214 60 64 6.0 10.0 0.00 0.00 0.00 47 1013.5
20260510150708 61 113 5.0 9.0 0.00 0.00 0.00 49 1013.2
20260510150204 61 49 6.0 8.0 0.00 0.00 0.00 50 1013.2
20260510145701 60 50 2.0 6.0 0.00 0.00 0.00 49 1012.9
20260510145157 61 0 3.0 9.0 0.00 0.00 0.00 47 1013.1
20260510144653 60 74 2.0 5.0 0.00 0.00 0.00 47 1012.9
20260510144149 59 130 4.0 4.0 0.00 0.00 0.00 50 1013.0
20260510143645 59 130 3.0 7.0 0.00 0.00 0.00 51 1013.0
20260510143141 59 68 2.0 6.0 0.00 0.00 0.00 52 1012.8
20260510142638 59 104 3.0 9.0 0.00 0.00 0.00 49 1012.7
20260510142135 59 113 7.0 10.0 0.00 0.00 0.00 52 1012.5
20260510141632 59 113 10.0 13.0 0.00 0.00 0.00 48 1012.6
20260510141130 58 89 5.0 9.0 0.00 0.00 0.00 52 1012.6
20260510140626 58 29 6.0 7.0 0.00 0.00 0.00 50 1012.4
20260510140125 57 114 3.0 6.0 0.00 0.00 0.00 54 1012.5
20260510135621 56 36 3.0 5.0 0.00 0.00 0.00 56 1012.4
20260510135117 57 115 9.0 12.0 0.00 0.00 0.00 52 1012.2
20260510134614 57 124 9.0 12.0 0.00 0.00 0.00 52 1012.4
20260510134111 56 126 5.0 6.0 0.00 0.00 0.00 54 1012.4
20260510133607 57 103 5.0 9.0 0.00 0.00 0.00 52 1012.2
20260510133103 57 84 6.0 9.0 0.00 0.00 0.00 53 1012.2
20260510132600 56 43 4.0 9.0 0.00 0.00 0.00 52 1011.9
20260510132057 57 41 6.0 8.0 0.00 0.00 0.00 53 1011.9
20260510131555 57 56 4.0 6.0 0.00 0.00 0.00 55 1012.1
20260510131052 57 70 3.0 5.0 0.00 0.00 0.00 56 1012.0
20260510130548 55 63 6.0 6.0 0.00 0.00 0.00 57 1012.0
20260510130046 55 52 3.0 5.0 0.00 0.00 0.00 58 1011.9
20260510125542 54 101 4.0 6.0 0.00 0.00 0.00 58 1011.9
20260510125038 54 111 3.0 6.0 0.00 0.00 0.00 58 1011.8
20260510124535 54 112 4.0 6.0 0.00 0.00 0.00 61 1011.7
20260510124032 54 36 4.0 6.0 0.00 0.00 0.00 60 1011.7
20260510123527 54 107 3.0 7.0 0.00 0.00 0.00 61 1011.6
20260510123024 54 51 7.0 8.0 0.00 0.00 0.00 62 1011.6
20260510122519 54 94 4.0 5.0 0.00 0.00 0.00 63 1011.2
20260510122015 54 96 5.0 6.0 0.00 0.00 0.00 62 1011.4
20260510121513 53 60 4.0 5.0 0.00 0.00 0.00 63 1011.2
20260510121010 53 116 3.0 4.0 0.00 0.00 0.00 65 1011.1
20260510120508 53 105 3.0 5.0 0.00 0.00 0.00 62 1011.2
20260510120003 53 109 3.0 4.0 0.00 0.00 0.00 63 1011.1
20260510115501 53 87 3.0 5.0 0.00 0.00 0.00 63 1011.3
20260510114956 53 100 2.0 5.0 0.00 0.00 0.00 63 1011.0
20260510114453 53 110 2.0 4.0 0.00 0.00 0.00 63 1011.0
20260510113949 53 110 3.0 4.0 0.00 0.00 0.00 64 1011.0
20260510113444 53 99 2.0 3.0 0.00 0.00 0.00 63 1010.8
20260510112942 53 112 3.0 4.0 0.00 0.00 0.00 62 1010.8
20260510112439 53 100 2.0 4.0 0.00 0.00 0.00 63 1010.6
20260510111935 53 87 3.0 6.0 0.00 0.00 0.00 63 1010.7
20260510111431 53 114 2.0 6.0 0.00 0.00 0.00 62 1010.5
20260510110927 53 91 3.0 6.0 0.00 0.00 0.00 62 1010.6
20260510110424 53 86 1.0 6.0 0.00 0.00 0.00 63 1010.3
20260510105920 53 99 3.0 5.0 0.00 0.00 0.00 63 1010.2
20260510105415 53 80 4.0 7.0 0.00 0.00 0.00 62 1010.1
20260510104910 54 108 2.0 4.0 0.00 0.00 0.00 64 1010.0
20260510104408 54 107 3.0 4.0 0.00 0.00 0.00 65 1010.1
20260510103904 54 109 8.0 8.0 0.00 0.00 0.00 65 1009.8
20260510103401 54 96 1.0 5.0 0.00 0.00 0.00 65 1009.7
20260510102856 54 150 1.0 8.0 0.00 0.00 0.00 66 1009.8
20260510102352 55 324 2.0 3.0 0.00 0.00 0.00 66 1009.8
20260510101850 55 85 3.0 5.0 0.00 0.00 0.00 66 1009.5
20260510101348 55 71 2.0 5.0 0.00 0.00 0.00 66 1009.5
20260510100844 55 40 1.0 3.0 0.00 0.00 0.00 66 1009.8
20260510100341 55 87 2.0 3.0 0.00 0.00 0.00 64 1009.7
20260510095838 55 54 5.0 7.0 0.00 0.00 0.00 64 1009.1
20260510095333 55 75 3.0 4.0 0.00 0.00 0.00 64 1009.0
20260510094832 56 332 2.0 3.0 0.00 0.00 0.00 64 1009.1
20260510094327 56 104 2.0 4.0 0.00 0.00 0.00 64 1009.1
20260510093824 56 39 4.0 6.0 0.00 0.00 0.00 63 1008.8
20260510093320 56 63 3.0 6.0 0.00 0.00 0.00 63 1008.8
20260510092817 56 79 3.0 4.0 0.00 0.00 0.00 63 1008.7
20260510092312 56 103 3.0 5.0 0.00 0.00 0.00 63 1009.0
20260510091808 56 330 6.0 6.0 0.00 0.00 0.00 62 1008.6
20260510091306 57 28 2.0 7.0 0.00 0.00 0.00 64 1008.4
20260510090802 57 76 1.0 7.0 0.00 0.00 0.00 64 1008.2
20260510090259 57 67 2.0 5.0 0.00 0.00 0.00 64 1008.2
20260510085755 57 316 4.0 5.0 0.00 0.00 0.00 65 1008.0
20260510085254 57 102 2.0 6.0 0.00 0.00 0.00 66 1008.0
20260510084751 57 87 2.0 7.0 0.00 0.00 0.00 66 1007.9
20260510084248 57 62 2.0 9.0 0.00 0.00 0.00 66 1007.7
20260510083745 58 53 4.0 5.0 0.00 0.00 0.00 66 1007.4
20260510083242 58 60 6.0 12.0 0.00 0.00 0.00 65 1007.6
20260510082737 58 293 0.0 9.0 0.00 0.00 0.00 65 1007.5
20260510082234 58 77 2.0 6.0 0.00 0.00 0.00 66 1007.5
20260510081733 58 44 4.0 5.0 0.00 0.00 0.00 67 1007.4
20260510081230 59 106 2.0 3.0 0.00 0.00 0.00 68 1007.4
20260510080725 59 145 0.0 4.0 0.00 0.00 0.00 69 1007.4
20260510080221 59 73 0.0 4.0 0.00 0.00 0.00 68 1007.3
20260510075717 59 348 2.0 4.0 0.00 0.00 0.00 69 1007.3
20260510075215 59 93 3.0 4.0 0.00 0.00 0.00 69 1007.0
20260510074712 59 327 2.0 3.0 0.00 0.00 0.00 69 1007.5
20260510074209 60 355 2.0 4.0 0.00 0.00 0.00 69 1007.3
20260510073705 60 359 3.0 4.0 0.00 0.00 0.00 70 1007.0
20260510073201 60 31 2.0 6.0 0.00 0.00 0.00 70 1007.1
20260510072657 60 279 2.0 6.0 0.00 0.00 0.00 69 1007.0
20260510072154 60 359 3.0 3.0 0.00 0.00 0.00 69 1007.0
20260510071650 60 132 1.0 4.0 0.00 0.00 0.00 69 1007.2
20260510071147 60 24 3.0 3.0 0.00 0.00 0.00 68 1006.9
20260510070645 61 9 2.0 5.0 0.00 0.00 0.00 68 1007.0
20260510070142 61 220 3.0 4.0 0.00 0.00 0.00 68 1007.2
20260510065637 61 208 0.0 3.0 0.00 0.00 0.00 67 1007.1
20260510065133 61 357 1.0 3.0 0.00 0.00 0.00 67 1006.9
20260510064630 61 7 2.0 4.0 0.00 0.00 0.00 66 1007.1
20260510064127 61 235 0.0 2.0 0.00 0.00 0.00 66 1007.0
20260510063624 61 352 2.0 6.0 0.00 0.00 0.00 66 1006.8
20260510063121 61 346 2.0 4.0 0.00 0.00 0.00 66 1006.9
20260510062616 61 106 1.0 3.0 0.00 0.00 0.00 66 1007.0
20260510062112 62 177 1.0 4.0 0.00 0.00 0.00 66 1006.8
20260510061608 62 153 2.0 6.0 0.00 0.00 0.00 66 1006.7
20260510061106 62 255 2.0 5.0 0.00 0.00 0.00 66 1007.1
20260510060601 62 250 4.0 8.0 0.00 0.00 0.00 66 1007.0
20260510060058 62 235 4.0 7.0 0.00 0.00 0.00 66 1007.0
20260510055554 62 243 2.0 9.0 0.00 0.00 0.00 67 1007.0
20260510055053 63 200 3.0 9.0 0.00 0.00 0.00 67 1007.0
20260510054549 62 212 4.0 10.0 0.00 0.00 0.00 69 1006.9
20260510054043 62 220 4.0 10.0 0.00 0.00 0.00 70 1006.8
20260510053538 62 224 3.0 14.0 0.00 0.00 0.00 71 1007.0
20260510053035 61 194 5.0 6.0 0.00 0.00 0.00 72 1007.2
20260510052531 61 209 2.0 5.0 0.00 0.00 0.00 72 1007.0
20260510052027 61 191 3.0 5.0 0.00 0.00 0.00 71 1006.8
20260510051523 61 195 3.0 4.0 0.00 0.00 0.00 71 1006.9
20260510051020 61 169 2.0 3.0 0.00 0.00 0.00 70 1006.6
20260510050517 62 157 2.0 4.0 0.00 0.00 0.00 69 1006.5
20260510050014 62 201 2.0 5.0 0.00 0.00 0.00 69 1006.4
20260510045511 62 194 3.0 3.0 0.00 0.00 0.00 68 1006.5
20260510045007 62 285 1.0 4.0 0.00 0.00 0.00 68 1006.5
20260510044504 62 205 3.0 6.0 0.00 0.00 0.00 68 1006.2
20260510044001 62 183 2.0 3.0 0.00 0.00 0.00 68 1006.4
20260510043456 62 180 0.0 4.0 0.00 0.00 0.00 68 1006.6
20260510042955 62 177 2.0 4.0 0.00 0.00 0.00 68 1006.3
20260510042451 61 180 4.0 4.0 0.00 0.00 0.00 68 1006.1
20260510041947 61 151 1.0 2.0 0.00 0.00 0.00 68 1006.0
20260510041444 62 159 2.0 3.0 0.00 0.00 0.00 67 1006.0
20260510040942 62 183 2.0 4.0 0.00 0.00 0.00 67 1006.2
20260510040438 62 179 1.0 3.0 0.00 0.00 0.00 66 1006.1
20260510035934 62 170 2.0 3.0 0.00 0.00 0.00 66 1006.0
20260510035431 63 164 2.0 3.0 0.00 0.00 0.00 65 1005.9
20260510034930 63 204 2.0 3.0 0.00 0.00 0.00 64 1005.9
20260510034430 63 129 2.0 4.0 0.00 0.00 0.00 64 1005.6
20260510033925 63 198 4.0 6.0 0.00 0.00 0.00 63 1005.6
20260510033422 63 171 2.0 4.0 0.00 0.00 0.00 63 1005.6
20260510032918 63 180 3.0 5.0 0.00 0.00 0.00 63 1005.5
20260510032415 63 176 2.0 4.0 0.00 0.00 0.00 64 1005.6
20260510031911 64 186 2.0 4.0 0.00 0.00 0.00 63 1005.6
20260510031407 63 191 2.0 3.0 0.00 0.00 0.00 63 1005.8
20260510030907 64 199 2.0 3.0 0.00 0.00 0.00 63 1005.7
20260510030403 64 181 4.0 6.0 0.00 0.00 0.00 62 1005.5
20260510025901 64 178 3.0 3.0 0.00 0.00 0.00 62 1005.6
20260510025358 64 189 2.0 4.0 0.00 0.00 0.00 62 1005.7
20260510024855 64 195 2.0 4.0 0.00 0.00 0.00 62 1005.9
20260510024352 64 201 2.0 3.0 0.00 0.00 0.00 61 1005.7
20260510023848 64 191 2.0 4.0 0.00 0.00 0.00 61 1005.6
20260510023344 64 183 3.0 5.0 0.00 0.00 0.00 60 1005.5
20260510022842 64 200 2.0 5.0 0.00 0.00 0.00 60 1005.5
20260510022341 64 179 3.0 5.0 0.00 0.00 0.00 60 1005.2
20260510021840 65 217 3.0 4.0 0.00 0.00 0.00 60 1005.3
20260510021338 65 196 5.0 6.0 0.00 0.00 0.00 60 1005.1
20260510020834 65 173 2.0 4.0 0.00 0.00 0.00 60 1005.3
20260510020334 65 143 2.0 3.0 0.00 0.00 0.00 59 1005.1
20260510015830 65 207 3.0 4.0 0.00 0.00 0.00 59 1005.3
20260510015326 65 180 2.0 5.0 0.00 0.00 0.00 58 1005.1
20260510014822 65 197 2.0 5.0 0.00 0.00 0.00 58 1005.1
20260510014319 65 157 2.0 4.0 0.00 0.00 0.00 58 1005.0
20260510013815 66 166 1.0 4.0 0.00 0.00 0.00 57 1004.8
20260510013311 66 194 3.0 4.0 0.00 0.00 0.00 56 1004.6
20260510012807 67 196 2.0 7.0 0.00 0.00 0.00 55 1004.6
20260510012307 67 189 4.0 5.0 0.00 0.00 0.00 55 1004.5
20260510011807 67 205 3.0 6.0 0.00 0.00 0.00 54 1004.3
20260510011302 67 180 3.0 6.0 0.00 0.00 0.00 54 1004.3
20260510010759 67 194 3.0 5.0 0.00 0.00 0.00 54 1004.6
20260510010256 68 238 3.0 5.0 0.00 0.00 0.00 53 1004.5
20260510005753 68 186 5.0 5.0 0.00 0.00 0.00 52 1004.1
20260510005249 68 216 4.0 5.0 0.00 0.00 0.00 52 1004.0
20260510004747 69 188 1.0 5.0 0.00 0.00 0.00 52 1004.2
20260510004244 69 218 5.0 7.0 0.00 0.00 0.00 51 1004.2
20260510003742 69 214 9.0 10.0 0.00 0.00 0.00 51 1004.2
20260510003238 69 230 4.0 7.0 0.00 0.00 0.00 51 1004.2
20260510002736 69 188 3.0 6.0 0.00 0.00 0.00 51 1004.0
20260510002235 69 190 3.0 8.0 0.00 0.00 0.00 50 1003.9
20260510001731 69 222 8.0 11.0 0.00 0.00 0.00 50 1003.8
20260510001230 69 217 4.0 10.0 0.00 0.00 0.00 50 1003.8
20260510000725 70 248 2.0 9.0 0.00 0.00 0.00 50 1003.8
20260510000223 70 213 7.0 7.0 0.00 0.00 0.00 49 1003.9
20260509235720 70 214 8.0 9.0 0.00 0.00 0.00 49 1003.8
20260509235216 70 210 4.0 8.0 0.00 0.00 0.00 48 1003.5
20260509234712 70 222 5.0 9.0 0.00 0.00 0.00 48 1003.6
20260509234209 71 220 8.0 11.0 0.00 0.00 0.00 47 1003.4
20260509233708 71 232 7.0 11.0 0.00 0.00 0.00 47 1003.3
20260509233205 71 225 5.0 9.0 0.00 0.00 0.00 47 1003.5
20260509232701 71 221 6.0 11.0 0.00 0.00 0.00 48 1003.6
20260509232157 71 235 3.0 15.0 0.00 0.00 0.00 48 1003.5
20260509231654 71 233 6.0 13.0 0.00 0.00 0.00 48 1003.5
20260509231152 71 222 7.0 9.0 0.00 0.00 0.00 49 1003.4
20260509230649 71 241 6.0 19.0 0.00 0.00 0.00 49 1003.4
20260509230145 71 214 4.0 13.0 0.00 0.00 0.00 49 1003.5
20260509225641 71 208 15.0 15.0 0.00 0.00 0.00 48 1003.6
20260509225137 71 240 8.0 11.0 0.00 0.00 0.00 49 1003.4
20260509224632 71 221 3.0 12.0 0.00 0.00 0.00 47 1003.4
20260509224129 71 195 4.0 16.0 0.00 0.00 0.00 46 1003.2
20260509223626 72 298 2.0 13.0 0.00 0.00 0.00 47 1003.3
20260509223124 72 234 5.0 14.0 0.00 0.00 0.00 46 1003.3
20260509222620 72 216 2.0 13.0 0.00 0.00 0.00 46 1003.3
20260509222116 73 222 7.0 12.0 0.00 0.00 0.00 43 1003.2
20260509221612 73 241 5.0 10.0 0.00 0.00 0.00 44 1003.1
20260509221108 73 269 0.0 7.0 0.00 0.00 0.00 47 1003.0
20260509220604 72 212 4.0 13.0 0.00 0.00 0.00 46 1003.2